Regional Weather Roundup
Issued by NWS

Home | Current Version | Previous Version | Graphics & Text | Print | Product List | Glossary Off
Versions: 1 2 3 4 5 6 7 8 9 10 11 12 13 14 15 16 17 18 19 20 21 22 23 24 25 26 27 28 29 30 31 32 33 34 35 36 37 38 39 40 41 42 43 44 45 46 47 48 49 50

000
ASUS43 KMKX 261500
RWRWI

WISCONSIN REGIONAL WEATHER ROUNDUP
NATIONAL WEATHER SERVICE MILWAUKEE/SULLIVAN WI
900 AM CST FRI DEC 26 2014

NOTE: "FAIR" INDICATES FEW OR NO CLOUDS BELOW 12,000 FEET WITH NO
SIGNIFICANT WEATHER AND/OR OBSTRUCTIONS TO VISIBILITY.

WIZ001-002-006>008-014>016-023>028-261600-
NORTHWEST WISCONSIN

CITY           SKY/WX    TMP DP  RH WIND       PRES   REMARKS
SUPERIOR ARPT  CLOUDY    30  25  81 N5        30.04R WCI  25
ASHLAND        CLOUDY    30  28  92 N9        30.01R WCI  22
HAYWARD        CLOUDY    30  27  88 N7        29.99R WCI  23
SIREN          CLOUDY    30  29  95 N5        30.00R WCI  25
CUMBERLAND     CLOUDY    30  28  93 N5        29.96R FOG     WCI  25
RICE LAKE      FLURRIES  32  29  90 N7        29.98R WCI  25
CHETEK         CLOUDY    32  30  94 CALM      29.95R FOG
LADYSMITH      CLOUDY    32  30  93 N5        29.95R WCI  27
EAU CLAIRE     NOT AVBL
MENOMONIE      CLOUDY    33  31  93 N5        29.94R FOG     WCI  28
NEW RICHMOND   CLOUDY    32  31  98 N8        29.97R WCI  25
OSCEOLA        CLOUDY    32  32 100 N5        30.01R WCI  27
$$

WIZ003>005-009-010-017-018-261600-
NORTH CENTRAL WISCONSIN

CITY           SKY/WX    TMP DP  RH WIND       PRES   REMARKS
MANITOWISH WTR CLOUDY    28  28 100 NE3       29.93R
ARBOR VITAE    CLOUDY    32  30  94 CALM      29.92R FOG
WOODRUFF       CLOUDY    32  30  94 CALM      29.92R FOG
RHINELANDER    CLOUDY    29  28  96 CALM      29.94R FOG
EAGLE RIVER    CLOUDY    29  29 100 CALM      29.93R FOG
LAND O LAKES   CLOUDY    28  28 100 CALM      29.94R FOG
PHILLIPS       CLOUDY    29  28  94 NE3       29.93R
TOMAHAWK       CLOUDY    30  28  94 CALM      29.93R FOG
MEDFORD        CLOUDY    29  28  96 NE3       29.92R FOG
MERRILL        CLOUDY    30  30 100 CALM      29.93R FOG
$$

WIZ029-030-035-036-043>047-261600-
CENTRAL WISCONSIN

CITY           SKY/WX    TMP DP  RH WIND       PRES   REMARKS
WAUSAU         FOG       29  28  96 E3        29.92R VSB 1/2
MOSINEE        FOG       27  27 100 NE5       29.93R VSB 1/8 WCI  21
MARSHFIELD     MOSUNNY   29  28  96 CALM      29.91R FOG
STEVENS POINT  SUNNY     24  23  98 NE3       29.94R FOG
WAUPACA        FOG       28  27  96 CALM      29.96R VSB<1/4
WAUTOMA        NOT AVBL
WISC RAPIDS    SUNNY     31  28  89 CALM      29.94S
CAMP DOUGLAS   SUNNY     27  27 100 SE1       29.92S
$$

WIZ011>013-019>022-031-037>040-048>050-261600-
NORTHEAST WISCONSIN

CITY           SKY/WX    TMP DP  RH WIND       PRES   REMARKS
ANTIGO         FOG       28  28 100 CALM      29.93R VSB<1/4
SHAWANO        FOG       29  28  96 CALM      29.97R VSB<1/4
OCONTO         SUNNY     26  26 100 CALM      29.95S
STURGEON BAY   MOSUNNY   36  32  87 S6        29.98R WCI  31
GREEN BAY      SUNNY     33  32  96 CALM      29.97R FOG
MANITOWOC      SUNNY     36  34  93 CALM      29.96S
APPLETON       MOSUNNY   32  32 100 VRB3      29.96R
CLINTONVILLE   FOG       28  28 100 CALM      29.96R VSB<1/4
OSHKOSH        SUNNY     35  32  88 CALM      29.96R
$$

WIZ032>034-041-042-053>061-261600-
SOUTHWEST WISCONSIN

CITY           SKY/WX    TMP DP  RH WIND       PRES   REMARKS
LA CROSSE      SUNNY     31  29  92 CALM      29.93R
SPARTA         SUNNY     25  25  99 CALM      29.93R
VIROQUA        SUNNY     34  34 100 SE7       29.90R WCI  28
BOSCOBEL       SUNNY     30  28  92 CALM      29.94R
PRAIRIE DU CHI SUNNY     32  29  90 CALM      29.93R
PLATTEVILLE    SUNNY     37  33  88 CALM      29.94S
$$

WIZ056-057-062-063-064-067-068-261600-
SOUTH CENTRAL WISCONSIN

CITY           SKY/WX    TMP DP  RH WIND       PRES   REMARKS
REEDSBURG      SUNNY     36  33  88 CALM      29.93R
BARABOO/DELLS  SUNNY     38  32  78 SW9       29.92R WCI  32
LONE ROCK      NOT AVBL
MINERAL POINT  MOSUNNY   36  34  93 CALM      29.92S
MADISON        PTSUNNY   38  34  85 S5        29.95R WCI  34
MIDDLETON      SUNNY     38  36  90 S5        29.95R WCI  35
WATERTOWN      SUNNY     35  35 100 S3        29.95R
MONROE         SUNNY     36  34  93 S10       29.93S WCI  28
JANESVILLE     SUNNY     36  34  93 S6        29.97R WCI  31
$$

WIZ051-052-058>065-066-070>072-261600-
SOUTHEAST WISCONSIN

CITY           SKY/WX    TMP DP  RH WIND       PRES   REMARKS
MILWAUKEE      MOSUNNY   40  33  76 SW14      29.99R WCI  32
WAUKESHA       NOT AVBL
MILWAUKEE/TIMM SUNNY     37  34  87 SW7       29.98R WCI  32
RACINE         SUNNY     38  33  82 SW10      30.01R WCI  31
BURLINGTON     SUNNY     34  32  93 S7        29.98R WCI  28
KENOSHA        SUNNY     39  33  79 SW14      29.99R WCI  31
FOND DU LAC    SUNNY     39  34  82 SW13      29.95R WCI  31
SHEBOYGAN      SUNNY     36  33  89 S5        29.97R WCI  32
WEST BEND      SUNNY     37  32  81 S7        29.96R WCI  32
JUNEAU         SUNNY     34  33  94 SE6       29.96R WCI  29
$$

LSZ147-162-261600-
LAKE SUPERIOR

STATION/POSITION TIME  TEMP    WIND        PRES    WAVE
                       AIR SEA DIR/SP/G            HT/PER
                 (UTC) (F)     (DEG/KT/KT) (MB)    (FT/S)
DEVILS ISLAND    1400   32      20/ 13/ 14 1016.7R
PORT WING        1400   32      10/ 12/ 13 1016.3S
SAXON HARBOR     1400   32     350/  4/  5 1015.2S
$$

LMZ867-665-643>646-261600-
LAKE MICHIGAN

STATION/POSITION TIME  TEMP    WIND        PRES    WAVE
                       AIR SEA DIR/SP/G            HT/PER
                 (UTC) (F)     (DEG/KT/KT) (MB)    (FT/S)
CHAMBERS ISLAND  1400   33      CALM  /  2 1014.9R
NORTHPORT PIER   1400   35        CALM     1014.6S
SISTER BAY       1413             CALM       N/A
ALGOMA LAKESHORE 1400             CALM       N/A
KEWAUNEE LAKESHO 1400   36     190/  3/  5 1013.6R
SHEBOYGAN LAKESH 1400   39 39  180/ 11/ 11 1015.0S
PORT WASHINGTON  1400   40     200/  2/  2 1015.2
MILWAUKEE LAKESH 1400   39     220/ 10/ 12   N/A
KENOSHA   LAKESH 1400   38     220/ 11/ 16 1015.6R
$$

TC  - TEMPERATURE IN CELSIUS
VSB - VISIBILITY IN STATUTE MILES
WCI - WIND CHILL INDEX
HX  - HEAT INDEX




USA.gov is the U.S. government's official web portal to all federal, state and local government web resources and services.